{"data":{"norad_id":65949,"intl_designator":"2025-228C","name":"KUIPER-00117","alt_names":[],"object_type":"PAYLOAD","status":"ACTIVE","operator":null,"country":"US","launch_date":"2025-10-14","launch_site_code":"AFETR","launch_vehicle":null,"mission":null,"orbit_class":"UNKNOWN","rcs_meters":null,"size_class":null,"mass_kg":null,"dimensions":null,"purposes":[],"wikipedia_slug":null,"has_3d_model":false,"image_url":null,"decayed_at":null,"tle_current":{"epoch":"2026-09-20T14:08:20.199552Z","epoch_age_seconds":135978,"freshness":"FRESH","line1":"1 65949U 25228C   26263.58912268  .00001384  00000+0  21052-3 0  9990","line2":"2 65949  51.8993 216.2161 0000636  47.8130 312.2886 14.79941831 52124","mean_motion":14.79941831,"eccentricity":6.36e-5,"inclination_deg":51.8993,"raan_deg":216.2161,"arg_perigee_deg":47.813,"mean_anomaly_deg":312.2886,"bstar":0.00021052,"rev_number":5212,"period_min":97.301121560095,"perigee_km":629.06206582871,"apogee_km":629.95343824117,"semimajor_km":7007.6447520349,"source":"CELESTRAK","updated_at":"2026-09-21T09:00:15.654157Z"}}}